Temperature
17 17 16 16 15 15 15 14 14 13 13 13 13 12 12 12 13 13 13 13 13 13 13 13 13 13 13 13 13 13 13 13 14 13 12 12 12 13 13 13 13 14 14
17 16 16 16 16 15 15 14 14 13 13 13 12 12 12 12 12 12 12 12 12 12 12 12 12 12 13 13 13 13 13 13 14 13 13 13 13 13 13 13 13 13 13
16 16 16 16 15 15 15 14 13 13 13 13 12 12 11 11 11 11 12 12 12 12 12 12 12 12 12 12 13 12 13 13 13 13 13 13 13 12 12 12 12 12 12
15 15 15 15 15 15 15 14 13 13 13 13 12 12 11 11 11 11 11 11 12 12 12 12 12 12 12 12 12 12 13 12 13 13 13 12 12 12 12 12 12 12 12
13 14 14 15 15 15 14 14 13 13 12 12 12 12 11 11 11 11 11 11 11 11 11 11 11 12 12 12 12 13 13 13 13 13 12 12 12 12 12 11 11 11 11
12 12 13 14 14 15 14 14 13 13 12 12 12 12 11 11 11 11 11 11 11 11 11 11 11 12 12 12 12 12 12 13 13 13 12 12 12 11 11 11 11 11 11
11 11 12 12 13 14 14 13 13 13 12 12 12 11 11 11 11 11 11 11 11 11 11 11 11 11 12 12 12 12 12 12 12 12 12 11 11 11 11 11 11 11 10
10 10 11 11 12 12 13 13 13 12 12 12 12 11 11 11 11 11 11 11 11 11 11 11 11 11 11 11 12 12 11 11 11 11 11 11 10 10 10 10 10 10 10
9 10 10 10 11 11 11 11 12 12 12 12 12 11 11 11 11 11 11 11 11 11 11 11 11 11 11 11 11 11 11 11 11 11 11 10 10 10 10 10 10 10 9
9 9 9 9 10 10 10 10 11 11 11 11 11 11 11 12 12 11 11 11 11 11 11 11 11 11 11 11 11 11 11 11 10 10 10 10 10 9 9 9 9 9 9
8 8 8 9 9 9 9 9 10 10 11 11 11 11 11 12 12 11 11 11 11 11 11 11 10 10 10 10 10 10 10 10 10 9 9 9 9 8 8 8 8 8 8
8 8 8 8 8 8 8 8 9 9 10 10 10 11 11 11 11 11 11 11 11 11 11 11 10 10 10 10 9 9 9 9 9 9 8 8 8 8 7 8 8 8 8
8 8 8 8 8 8 8 8 8 8 9 9 10 11 11 11 11 11 11 11 11 11 11 11 10 10 9 9 8 8 8 8 8 8 7 7 7 7 7 7 7 7 7
7 7 7 8 8 8 7 7 7 7 8 9 10 11 11 11 11 11 11 11 11 10 10 10 9 9 9 8 8 8 8 8 7 7 7 7 7 7 7 7 7 7 7
6 6 7 7 7 7 7 7 7 7 7 8 9 11 11 11 11 11 11 11 11 10 10 10 9 9 9 8 8 8 8 7 7 7 7 7 6 6 6 6 6 6 6
5 6 6 7 7 7 6 6 7 6 7 7 8 10 12 12 12 11 11 11 11 11 10 10 9 9 9 9 8 8 8 8 7 7 7 6 6 6 6 6 6 6 6
4 5 6 7 7 6 6 6 6 6 7 7 8 9 11 12 12 12 11 11 11 11 10 10 10 9 9 9 9 8 8 8 7 7 7 7 6 6 6 6 6 6 6
4 5 6 6 7 6 6 6 5 5 6 7 8 9 10 11 12 11 11 11 10 10 10 10 10 9 9 9 9 9 8 8 8 8 7 7 7 7 6 6 6 6 6
4 5 6 6 6 6 6 5 5 5 6 8 9 9 10 10 11 11 11 11 11 10 10 10 10 9 9 9 9 9 9 9 8 8 8 8 7 7 7 6 6 6 5
4 4 5 6 6 6 6 5 5 5 6 8 9 10 10 10 10 10 10 11 11 11 10 10 10 9 9 9 10 10 9 9 9 8 8 8 8 7 7 6 6 6 5
3 4 5 5 6 6 6 6 6 6 7 8 9 10 10 10 10 10 10 11 11 11 10 10 10 10 9 10 10 10 9 9 9 9 9 8 8 8 7 7 6 6 6
3 4 5 5 5 6 6 6 6 7 8 8 9 10 10 10 11 11 11 11 11 11 11 10 10 10 9 10 10 10 10 9 9 9 9 9 8 8 8 7 7 7 6
3 4 4 5 6 6 6 6 6 7 8 9 9 9 9 10 10 11 11 11 11 11 11 10 10 10 9 10 10 10 10 10 10 9 9 9 9 8 8 8 8 7 7
4 4 5 5 6 6 6 7 7 8 8 9 9 9 9 10 10 11 11 11 11 11 11 10 10 10 10 10 10 10 10 10 10 9 9 9 9 9 9 8 8 8 7
4 5 5 6 6 6 7 7 7 8 8 9 9 10 10 10 10 11 11 11 11 11 11 10 10 10 10 10 10 10 10 10 10 10 9 9 9 9 9 9 9 8 8
5 5 6 6 6 7 7 7 8 8 9 10 10 11 11 11 11 11 11 11 11 11 11 10 10 10 10 10 10 10 10 10 10 10 10 9 10 10 10 9 9 9 8
Wind_Speed
6 7 7 8 8 7 7 7 5 4 5 6 8 9 9 9 8 6 4 3 2 2 1 2 3 4 5 5 5 4 3 4 8 4 2 2 3 7 7 9 10 10 13
7 7 9 8 8 8 9 8 5 5 4 4 6 7 8 9 8 7 5 5 5 5 4 3 4 5 6 6 6 5 4 5 9 8 3 4 6 5 7 7 6 9 10
8 8 9 9 9 10 10 8 6 5 4 3 3 4 6 8 8 8 8 8 9 8 8 7 6 7 6 5 6 6 6 7 7 9 6 4 6 5 6 5 6 5 6
10 9 10 11 12 11 10 8 7 5 3 2 1 2 4 6 7 8 8 8 9 9 8 7 6 5 5 6 7 9 10 10 10 10 8 5 5 4 4 4 4 4 5
11 10 10 11 11 10 10 9 7 6 5 3 2 1 3 3 5 6 6 6 7 9 8 7 6 8 8 7 8 10 10 10 9 10 8 6 4 4 4 2 3 2 3
11 11 11 11 10 11 11 9 8 7 6 5 4 1 1 1 4 6 4 4 5 7 7 6 8 11 15 16 15 12 9 9 9 7 6 6 3 3 2 2 2 2 3
9 10 10 11 11 10 9 9 10 9 8 7 6 4 2 2 5 8 7 4 3 4 5 6 7 7 10 11 13 14 13 11 9 8 8 5 4 3 3 3 2 2 2
10 9 9 10 10 9 8 10 10 8 9 8 7 7 5 4 8 11 8 4 5 4 4 6 7 6 6 10 11 11 10 8 6 6 7 4 3 2 2 2 2 2 2
11 10 9 9 10 10 8 9 8 8 9 8 7 8 7 6 12 15 12 6 6 6 5 5 7 7 8 12 13 12 12 10 12 14 13 11 11 9 3 2 3 3 2
12 11 10 9 8 9 9 9 7 8 10 10 9 9 9 8 14 17 15 8 7 6 5 5 7 9 10 11 11 12 12 7 7 9 10 11 10 11 11 6 3 3 2
12 11 11 10 8 8 7 7 7 8 9 10 10 9 9 10 15 18 17 9 9 8 6 5 5 11 12 12 11 9 10 9 9 10 9 8 8 8 8 7 5 4 4
12 13 13 11 9 8 6 6 7 8 10 11 10 9 7 8 12 15 17 15 13 9 8 6 6 11 13 13 11 12 13 10 8 8 7 6 5 5 5 6 8 8 7
13 14 14 12 9 8 8 6 6 7 9 11 11 11 9 7 9 14 16 16 15 8 8 11 12 13 12 10 12 12 9 8 7 7 6 4 3 3 3 3 5 5 6
14 14 13 11 10 9 8 7 5 5 8 11 13 13 10 9 9 9 10 10 11 10 9 12 12 12 9 10 8 7 5 6 6 6 5 4 3 3 4 3 4 4 6
14 14 12 10 10 9 9 8 8 6 7 10 14 15 16 14 14 17 15 12 12 12 12 7 5 5 5 5 5 5 5 5 5 4 5 5 4 4 3 3 3 4 4
12 12 10 9 8 8 8 8 10 10 12 17 18 16 17 19 21 21 20 20 20 20 13 10 8 7 7 7 7 5 4 5 5 5 5 5 4 4 4 3 3 4 4
12 12 9 9 8 8 7 6 7 8 12 17 19 20 18 20 22 21 19 20 21 21 11 11 10 9 8 8 8 7 6 5 5 5 5 5 4 4 3 3 3 3 3
12 14 12 9 8 7 7 6 6 7 9 7 12 18 19 21 22 21 21 17 13 12 10 13 11 10 9 9 8 7 7 7 5 5 5 5 4 3 3 2 2 2 2
10 8 8 8 8 7 7 6 6 9 10 7 8 9 13 15 17 22 22 13 17 15 11 11 11 10 9 9 9 9 9 9 7 6 6 5 5 4 3 2 2 3 2
8 11 9 7 7 7 6 6 7 8 8 9 12 12 11 10 10 14 12 13 15 14 12 11 10 10 9 9 9 10 10 9 9 7 6 6 5 4 4 4 3 3 2
6 7 9 7 7 7 6 6 8 9 8 9 11 13 18 16 15 17 16 14 14 14 13 11 10 10 9 8 9 11 12 10 9 9 8 7 6 5 4 4 4 4 3
6 6 5 6 6 6 6 6 8 8 7 10 11 12 18 14 14 15 15 14 13 12 12 11 10 10 10 10 10 11 12 11 10 9 9 8 7 6 6 5 5 5 4
6 7 6 6 5 6 7 7 7 6 6 10 12 13 14 12 13 14 14 13 11 11 11 10 10 9 9 9 10 11 12 13 12 11 10 9 8 8 7 7 8 7 6
5 5 5 5 5 6 6 6 5 4 7 10 12 13 15 14 14 14 13 12 11 11 10 10 10 12 14 11 9 11 12 14 14 12 13 12 11 9 9 8 9 10 9
4 4 5 6 6 5 5 5 4 5 8 10 11 12 13 13 12 12 11 11 12 11 12 11 9 10 14 15 12 12 14 16 16 14 12 11 12 12 11 11 10 10 10
5 6 6 6 5 5 5 5 5 7 9 10 10 11 12 12 11 11 11 10 10 10 10 10 11 12 13 13 15 15 15 17 18 17 13 10 12 11 12 12 13 12 11
Wind_Direction
267 240 227 222 223 228 236 250 263 274 296 317 325 328 332 341 346 347 341 339 356 360 323 204 184 166 157 145 138 134 146 144 126 108 76 62 88 94 86 78 68 61 51
280 256 241 234 229 233 240 246 251 268 287 309 322 329 335 348 359 7 16 31 41 37 32 75 100 108 104 108 110 111 122 122 128 124 95 70 74 77 84 75 62 59 55
305 275 259 246 236 237 240 240 238 252 278 306 324 332 341 357 19 31 43 55 57 52 45 52 64 78 76 88 106 115 111 109 108 112 99 70 73 67 77 69 58 47 49
321 295 274 261 249 243 238 233 228 229 244 270 298 328 346 7 37 49 54 61 67 61 52 54 64 82 98 111 119 122 119 112 108 107 101 83 72 62 74 74 67 41 38
328 320 299 283 267 253 240 228 218 213 216 209 209 321 354 18 59 74 70 77 80 75 62 61 81 107 115 118 124 122 121 117 112 108 103 91 74 66 69 63 80 66 54
325 327 323 312 291 266 247 226 210 203 201 196 194 210 332 43 105 131 135 119 103 98 91 78 82 88 89 87 88 89 103 118 117 110 106 103 96 90 89 84 84 75 46
310 316 322 328 320 294 262 231 214 201 195 199 197 197 225 230 169 169 167 134 111 114 120 110 97 84 90 95 83 74 68 80 113 126 122 129 133 145 131 115 106 95 78
302 307 315 324 328 318 282 246 227 205 199 201 198 197 205 222 189 174 157 117 101 88 101 118 114 95 97 107 95 81 69 60 83 99 113 113 113 148 154 131 125 101 45
296 298 306 312 317 317 302 269 241 216 207 199 193 190 191 195 178 164 147 128 107 82 68 85 106 97 101 109 105 99 88 78 76 81 80 75 67 57 69 104 97 101 75
285 284 285 288 293 302 304 291 254 226 217 202 193 189 182 179 175 163 148 137 122 108 83 74 90 104 104 106 111 113 108 99 97 86 69 55 54 48 45 54 83 106 93
272 272 269 268 270 276 290 302 276 241 220 203 194 187 180 178 176 169 154 144 142 137 129 115 101 106 100 97 100 107 120 116 100 93 83 71 59 52 47 48 52 79 88
273 273 266 261 263 271 266 291 288 257 229 207 193 183 182 177 177 177 162 151 150 147 147 136 118 107 102 102 101 110 110 102 97 91 84 70 60 53 50 59 65 70 73
273 273 270 266 262 261 254 258 283 269 242 209 195 189 184 177 183 185 170 156 153 143 147 141 130 114 101 98 106 110 107 104 100 97 94 83 62 35 46 62 53 60 65
267 268 266 263 264 264 257 243 245 267 255 216 195 192 182 175 177 177 171 154 146 135 133 130 120 109 102 103 96 90 90 103 113 112 109 99 81 72 62 66 62 51 48
263 264 258 254 256 262 259 245 237 245 262 240 208 194 183 184 187 175 167 164 162 154 141 130 127 126 122 118 110 107 107 114 112 119 123 116 100 88 75 70 76 72 61
264 262 251 247 248 251 259 266 248 253 271 254 230 200 191 183 170 171 168 164 156 150 146 155 159 161 160 156 150 141 136 132 132 138 136 129 120 110 99 83 84 89 78
254 255 245 241 241 244 251 267 276 280 270 241 207 191 179 165 162 166 164 156 153 150 156 169 172 175 173 169 167 163 161 155 151 152 145 141 134 126 121 117 120 116 101
247 248 239 236 234 235 241 254 261 278 276 220 190 182 170 164 161 153 143 136 156 169 175 178 180 181 178 178 178 173 163 158 160 162 155 151 150 147 146 144 146 140 121
239 234 231 230 231 234 240 249 255 270 267 205 164 168 164 156 150 150 152 162 172 182 185 183 182 181 184 186 185 179 173 172 173 171 171 168 167 165 166 163 154 142 133
224 232 230 225 231 240 246 253 263 268 256 197 175 165 148 140 152 167 179 174 176 183 185 184 183 182 183 184 181 179 178 178 178 182 183 181 180 181 179 177 174 170 166
218 231 240 232 228 237 244 256 268 270 243 192 172 164 164 167 169 177 187 185 181 183 185 185 184 184 183 180 179 182 185 187 188 191 190 189 187 186 184 181 183 183 176
225 224 220 224 230 237 246 257 269 262 224 178 162 160 168 171 173 178 186 190 187 185 185 185 186 186 185 182 181 184 191 194 195 195 195 195 195 190 181 182 187 188 192
212 212 216 226 233 245 256 261 258 244 191 159 155 160 174 178 176 179 185 189 187 184 180 180 183 185 189 189 187 186 190 197 200 197 195 196 199 196 189 192 194 196 204
203 208 220 236 241 246 251 252 245 206 163 154 157 164 174 177 177 180 183 184 183 181 176 179 184 188 189 192 195 198 201 199 197 198 197 198 201 201 197 199 202 207 210
221 225 235 238 235 236 242 242 220 178 160 156 160 167 174 175 175 177 176 175 173 175 178 180 181 185 192 196 197 201 201 194 192 196 198 203 207 205 203 204 206 209 211
232 230 229 224 224 228 228 222 198 173 160 159 162 166 169 171 172 171 170 172 176 179 181 184 187 188 192 200 206 203 197 195 195 194 197 203 209 211 207 210 211 211 211
Height
1485 1483 1480 1478 1475 1473 1471 1468 1466 1463 1459 1456 1452 1450 1447 1443 1439 1436 1433 1431 1429 1427 1426 1427 1428 1430 1432 1434 1438 1442 1446 1449 1451 1456 1459 1462 1465 1466 1467 1468 1468 1467 1465
1481 1479 1476 1474 1472 1470 1467 1465 1462 1460 1457 1453 1451 1448 1446 1441 1437 1434 1431 1429 1428 1426 1426 1425 1426 1428 1431 1434 1437 1441 1445 1448 1451 1454 1459 1463 1465 1466 1467 1468 1468 1467 1466
1476 1474 1472 1470 1467 1465 1463 1461 1459 1457 1455 1452 1449 1447 1445 1442 1437 1434 1431 1430 1428 1427 1427 1427 1427 1429 1431 1434 1438 1442 1445 1449 1452 1455 1459 1462 1464 1466 1468 1468 1468 1468 1467
1470 1467 1465 1464 1462 1461 1459 1457 1456 1454 1452 1450 1448 1447 1445 1443 1440 1436 1434 1432 1430 1429 1430 1430 1431 1432 1434 1437 1440 1444 1447 1450 1454 1457 1460 1462 1464 1466 1467 1468 1469 1469 1469
1465 1461 1458 1456 1455 1454 1453 1452 1451 1450 1449 1448 1447 1446 1445 1444 1441 1439 1437 1435 1433 1433 1434 1435 1436 1437 1438 1440 1443 1446 1449 1452 1455 1457 1460 1462 1465 1466 1468 1469 1470 1470 1470
1460 1456 1452 1449 1447 1446 1446 1446 1446 1445 1445 1445 1444 1444 1444 1443 1442 1441 1440 1439 1438 1438 1439 1440 1441 1442 1443 1444 1447 1450 1452 1454 1456 1458 1460 1463 1466 1467 1468 1469 1470 1470 1470
1455 1452 1449 1444 1441 1439 1438 1438 1439 1439 1440 1440 1441 1442 1442 1443 1443 1443 1443 1442 1442 1442 1443 1444 1446 1447 1447 1448 1450 1452 1454 1456 1458 1460 1462 1464 1466 1467 1468 1469 1469 1469 1468
1450 1447 1444 1440 1436 1433 1431 1431 1432 1433 1434 1436 1437 1438 1439 1441 1442 1443 1444 1444 1444 1445 1446 1447 1448 1449 1450 1450 1451 1453 1455 1457 1459 1460 1462 1465 1466 1467 1468 1468 1468 1467 1467
1444 1441 1438 1435 1431 1428 1426 1425 1424 1426 1428 1430 1432 1434 1435 1438 1440 1442 1443 1445 1446 1447 1448 1449 1449 1449 1450 1450 1451 1452 1455 1457 1459 1461 1463 1464 1466 1466 1467 1467 1467 1467 1467
1438 1435 1433 1430 1427 1423 1421 1419 1418 1418 1420 1424 1427 1429 1431 1434 1437 1440 1442 1444 1446 1447 1448 1449 1449 1450 1450 1451 1452 1453 1455 1457 1459 1461 1463 1464 1465 1466 1466 1466 1466 1467 1467
1431 1428 1426 1424 1421 1418 1415 1413 1412 1411 1413 1416 1420 1424 1426 1430 1434 1438 1441 1443 1445 1447 1448 1449 1449 1450 1451 1452 1453 1454 1455 1458 1460 1461 1463 1465 1465 1465 1466 1466 1466 1467 1467
1422 1420 1417 1415 1413 1410 1408 1406 1405 1405 1405 1407 1412 1418 1421 1425 1430 1435 1439 1442 1445 1447 1448 1449 1450 1451 1451 1452 1453 1454 1456 1459 1460 1462 1463 1465 1466 1466 1467 1467 1467 1467 1467
1412 1410 1407 1405 1404 1402 1400 1398 1397 1398 1398 1398 1403 1409 1414 1420 1425 1431 1436 1440 1443 1446 1448 1449 1450 1452 1453 1454 1454 1456 1458 1459 1461 1462 1464 1465 1467 1467 1468 1468 1467 1467 1467
1400 1398 1397 1396 1394 1392 1391 1389 1388 1389 1390 1390 1394 1401 1407 1414 1420 1426 1432 1436 1441 1445 1447 1449 1451 1453 1455 1456 1456 1457 1459 1460 1462 1464 1465 1466 1467 1468 1468 1468 1468 1468 1467
1388 1387 1387 1386 1385 1383 1382 1381 1380 1380 1381 1383 1386 1393 1399 1406 1413 1420 1426 1432 1437 1441 1445 1448 1451 1453 1455 1456 1457 1459 1460 1462 1463 1465 1466 1467 1467 1468 1468 1468 1468 1468 1468
1376 1376 1376 1377 1376 1375 1374 1372 1370 1370 1370 1372 1378 1387 1394 1401 1409 1417 1423 1429 1434 1438 1442 1445 1449 1452 1455 1457 1458 1460 1462 1463 1464 1465 1466 1467 1468 1468 1468 1469 1469 1468 1469
1364 1364 1366 1368 1368 1367 1366 1364 1362 1361 1360 1361 1369 1380 1389 1397 1405 1413 1419 1425 1430 1435 1439 1443 1446 1450 1453 1456 1459 1461 1462 1463 1464 1465 1466 1467 1468 1468 1469 1469 1469 1469 1469
1352 1354 1356 1359 1360 1360 1359 1357 1355 1354 1353 1353 1362 1374 1384 1393 1401 1408 1415 1421 1426 1431 1435 1439 1443 1447 1451 1454 1457 1459 1461 1463 1464 1465 1466 1467 1468 1469 1469 1469 1469 1469 1469
1341 1344 1348 1351 1352 1353 1352 1350 1348 1347 1347 1349 1357 1368 1379 1388 1397 1404 1410 1415 1420 1425 1431 1436 1440 1444 1448 1451 1454 1457 1459 1461 1463 1465 1466 1467 1468 1469 1469 1469 1469 1469 1469
1333 1337 1341 1344 1345 1346 1345 1344 1342 1341 1342 1346 1353 1363 1373 1382 1390 1397 1405 1411 1416 1421 1427 1432 1436 1441 1445 1448 1451 1454 1457 1459 1461 1463 1465 1467 1468 1468 1469 1469 1468 1468 1468
1325 1330 1335 1338 1339 1340 1339 1339 1338 1337 1339 1343 1350 1359 1369 1378 1386 1393 1400 1406 1412 1417 1423 1428 1432 1437 1441 1444 1448 1451 1454 1456 1459 1461 1463 1465 1466 1467 1468 1468 1468 1467 1467
1320 1324 1329 1332 1334 1335 1335 1334 1334 1334 1336 1341 1348 1357 1367 1375 1383 1390 1396 1402 1408 1414 1419 1424 1429 1433 1436 1440 1444 1447 1450 1453 1456 1458 1461 1463 1464 1465 1466 1466 1466 1466 1466
1316 1320 1324 1327 1329 1330 1330 1330 1330 1331 1334 1340 1346 1353 1362 1371 1379 1386 1392 1398 1404 1410 1416 1420 1425 1429 1433 1437 1441 1444 1447 1450 1452 1455 1457 1459 1461 1462 1463 1464 1465 1464 1464
1315 1318 1320 1323 1324 1325 1326 1327 1328 1330 1334 1339 1345 1351 1359 1367 1375 1383 1389 1395 1401 1407 1412 1417 1421 1425 1429 1433 1436 1440 1443 1446 1449 1452 1454 1456 1458 1459 1460 1461 1462 1462 1462
1313 1316 1318 1319 1321 1323 1324 1325 1327 1331 1335 1340 1345 1351 1358 1366 1373 1381 1387 1392 1398 1403 1408 1413 1417 1421 1425 1428 1432 1436 1439 1442 1445 1448 1451 1453 1454 1455 1456 1457 1458 1458 1459
1312 1314 1315 1317 1318 1320 1322 1324 1328 1332 1336 1341 1346 1352 1359 1366 1372 1379 1384 1390 1395 1400 1405 1409 1414 1417 1421 1424 1428 1432 1435 1438 1441 1443 1446 1448 1449 1450 1451 1452 1453 1453 1454